Boulder Muni, Boulder, CO, CO

6:30 AM MDT on October 16, 2019 (GMT -0600)
Boulder Muni, Boulder, CO

Weather History for KBDU - August, 2019

Change the Weather History Date:

Sunday, August 25, 2019

  Actual Average Record
Temperature  
Mean Temperature 78 °F -  
Max Temperature 97 °F - 97 °F (2019)
Min Temperature 59 °F - 48 °F (2016)
Degree Days  
Heating Degree Days 0    
Month to date heating degree days 0  
Cooling Degree Days 13    
Month to date cooling degree days 252  
Growing Degree Days 28 (Base 50)    
Moisture  
Dew Point 36 °F    
Average Humidity 36    
Maximum Humidity 60    
Minimum Humidity 11    
Precipitation  
Precipitation 0.00 in - 0.02 in (2014)
Snow  
Snow 0.00 in - - ()
Snow Depth 0.00 in    
Sea Level Pressure  
Sea Level Pressure 29.95 in    
Wind  
Wind Speed 6 mph (WSW)    
Max Wind Speed 20 mph    
Max Gust Speed 31 mph    
Visibility 10 miles    
Events      
T = Trace of Precipitation, MM = Missing Value Source: NWS Daily Summary

Daily Weather History Graph

Daily Weather History Graph

Search for Another Location

Airport or City:

Astronomy

Aug. 25, 2019 Rise Set
Actual Time 6:21 AM MDT 7:43 PM MDT
Civil Twilight 5:53 AM MDT 8:11 PM MDT
Nautical Twilight 5:19 AM MDT 8:45 PM MDT
Astronomical Twilight 4:43 AM MDT 9:21 PM MDT
Moon 12:58 AM MDT (8/25) 4:07 PM MDT (8/25)
Length of Visible Light 14h 18m
Length of Day
13h 21m
Waning Crescent, 28% of the Moon is Illuminated
Aug 25
Waning Crescent
Aug 30
New
Sep 5
First Quarter
Sep 13
Full
Sep 21
Last Quarter

Hourly Weather History & Observations

Time (MDT) Temp. Dew Point Humidity Pressure Visibility Wind Dir Wind Speed Gust Speed Precip Events Conditions
12:12 AM 64.4 °F 37.4 °F 37% 30.01 in 10.0 mi SE 5.8 mph - N/A   Clear
12:30 AM 68.0 °F 33.8 °F 28% 30.00 in 10.0 mi SSE 4.6 mph - N/A   Clear
12:48 AM 62.6 °F 35.6 °F 37% 30.00 in 10.0 mi Calm Calm - N/A   Clear
1:12 AM 62.6 °F 35.6 °F 37% 29.98 in 10.0 mi Calm Calm - N/A   Clear
1:30 AM 62.6 °F 35.6 °F 37% 29.98 in 10.0 mi SE 3.5 mph - N/A   Clear
1:48 AM 60.8 °F 35.6 °F 39% 29.98 in 10.0 mi ENE 3.5 mph - N/A   Clear
2:12 AM 60.8 °F 37.4 °F 42% 29.98 in 10.0 mi East 3.5 mph - N/A   Clear
2:30 AM 62.6 °F 42.8 °F 48% 29.99 in 10.0 mi Calm Calm - N/A   Clear
2:48 AM 60.8 °F 42.8 °F 52% 29.98 in 10.0 mi Calm Calm - N/A   Clear
3:12 AM 60.8 °F 44.6 °F 55% 29.98 in 10.0 mi Calm Calm - N/A   Clear
3:30 AM 60.8 °F 46.4 °F 59% 29.98 in 10.0 mi Calm Calm - N/A   Clear
3:48 AM 60.8 °F 46.4 °F 59% 29.98 in 10.0 mi Calm Calm - N/A   Clear
4:12 AM 60.8 °F 44.6 °F 55% 29.98 in 10.0 mi Calm Calm - N/A   Clear
4:30 AM 60.8 °F 41.0 °F 48% 29.98 in 10.0 mi Calm Calm - N/A   Clear
4:48 AM 60.8 °F 41.0 °F 48% 29.97 in 10.0 mi SW 3.5 mph - N/A   Clear
5:12 AM 59.0 °F 42.8 °F 55% 29.97 in 10.0 mi Calm Calm - N/A   Clear
5:30 AM 60.8 °F 44.6 °F 55% 29.98 in 10.0 mi Calm Calm - N/A   Clear
5:48 AM 59.0 °F 44.6 °F 59% 29.98 in 10.0 mi Calm Calm - N/A   Clear
6:09 AM 62.6 °F 41.0 °F 45% 29.98 in 10.0 mi SW 4.6 mph - N/A   Clear
6:33 AM 64.4 °F 37.4 °F 37% 29.99 in 10.0 mi SW 3.5 mph - N/A   Clear
6:51 AM 71.6 °F 32.0 °F 23% 29.99 in 10.0 mi SW 9.2 mph - N/A   Clear
7:12 AM 73.4 °F 32.0 °F 22% 30.00 in 10.0 mi SW 9.2 mph - N/A   Clear
7:30 AM 73.4 °F 33.8 °F 23% 30.00 in 10.0 mi WSW 8.1 mph - N/A   Clear
7:48 AM 73.4 °F 33.8 °F 23% 30.01 in 10.0 mi WSW 5.8 mph - N/A   Clear
8:12 AM 77.0 °F 33.8 °F 21% 30.01 in 10.0 mi SW 5.8 mph - N/A   Clear
8:30 AM 78.8 °F 35.6 °F 21% 30.01 in 10.0 mi SW 4.6 mph - N/A   Clear
8:48 AM 80.6 °F 33.8 °F 18% 30.01 in 10.0 mi WSW 4.6 mph - N/A   Clear
9:12 AM 84.2 °F 37.4 °F 19% 30.00 in 10.0 mi SSW 3.5 mph - N/A   Clear
9:30 AM 86.0 °F 33.8 °F 15% 29.99 in 10.0 mi SSE 3.5 mph - N/A   Clear
9:48 AM 86.0 °F 32.0 °F 14% 29.99 in 10.0 mi Calm Calm - N/A   Clear
10:11 AM 87.8 °F 33.8 °F 15% 29.99 in 10.0 mi WSW 16.1 mph 28.8 mph N/A   Clear
10:29 AM 87.8 °F 33.8 °F 15% 29.99 in 10.0 mi West 19.6 mph 28.8 mph N/A   Clear
10:51 AM 89.6 °F 33.8 °F 14% 29.99 in 10.0 mi West 15.0 mph 27.6 mph N/A   Clear
11:29 AM 89.6 °F 33.8 °F 14% 29.98 in 10.0 mi WSW 16.1 mph 28.8 mph N/A   Clear
11:53 AM 91.4 °F 35.6 °F 14% 29.97 in 10.0 mi West 17.3 mph 24.2 mph N/A   Clear
12:12 PM 91.4 °F 35.6 °F 14% 29.97 in 10.0 mi West 17.3 mph 32.2 mph N/A   Clear
12:30 PM 93.2 °F 35.6 °F 13% 29.96 in 10.0 mi West 24.2 mph 33.4 mph N/A   Clear
12:48 PM 93.2 °F 33.8 °F 12% 29.95 in 10.0 mi West 19.6 mph 31.1 mph N/A   Clear
1:12 PM 93.2 °F 33.8 °F 12% 29.94 in 10.0 mi West 23.0 mph 34.5 mph N/A   Clear
1:30 PM 93.2 °F 32.0 °F 11% 29.95 in 10.0 mi West 23.0 mph 38.0 mph N/A   Clear
1:48 PM 95.0 °F 33.8 °F 12% 29.94 in 10.0 mi WSW 19.6 mph 27.6 mph N/A   Clear
2:12 PM 95.0 °F 32.0 °F 11% 29.93 in 10.0 mi West 26.5 mph 34.5 mph N/A   Clear
2:29 PM 95.0 °F 33.8 °F 12% 29.93 in 10.0 mi WNW 20.7 mph 36.8 mph N/A   Clear
2:53 PM 95.0 °F 35.6 °F 12% 29.91 in 10.0 mi West 15.0 mph 20.7 mph N/A   Clear
3:12 PM 96.8 °F 35.6 °F 12% 29.91 in 10.0 mi WNW 12.7 mph 21.9 mph N/A   Clear
3:30 PM 96.8 °F 35.6 °F 12% 29.91 in 10.0 mi WNW 16.1 mph 23.0 mph N/A   Clear
3:48 PM 93.2 °F 35.6 °F 13% 29.90 in 10.0 mi West 12.7 mph 23.0 mph N/A   Clear
4:12 PM 95.0 °F 35.6 °F 12% 29.89 in 10.0 mi WNW 12.7 mph - N/A   Clear
4:28 PM 95.0 °F 35.6 °F 12% 29.88 in 10.0 mi WNW 9.2 mph 18.4 mph N/A   Clear
4:52 PM 95.0 °F 35.6 °F 12% 29.87 in 10.0 mi WNW 11.5 mph - N/A   Clear
5:12 PM 95.0 °F 35.6 °F 12% 29.88 in 10.0 mi WNW 12.7 mph 17.3 mph N/A   Clear
5:30 PM 95.0 °F 35.6 °F 12% 29.88 in 10.0 mi West 10.4 mph 19.6 mph N/A   Clear
5:53 PM 95.0 °F 35.6 °F 12% 29.87 in 10.0 mi West 8.1 mph - N/A   Clear
6:08 PM 95.0 °F 35.6 °F 12% 29.87 in 10.0 mi West 8.1 mph - N/A   Clear
6:32 PM 91.4 °F 33.8 °F 13% 29.87 in 10.0 mi Calm Calm - N/A   Clear
6:50 PM 91.4 °F 35.6 °F 14% 29.87 in 10.0 mi WNW 3.5 mph - N/A   Clear
7:12 PM 89.6 °F 33.8 °F 14% 29.87 in 10.0 mi WNW 8.1 mph - N/A   Clear
7:30 PM 87.8 °F 33.8 °F 15% 29.88 in 10.0 mi West 6.9 mph - N/A   Clear
7:48 PM 87.8 °F 32.0 °F 14% 29.88 in 10.0 mi West 5.8 mph - N/A   Clear
8:12 PM 86.0 °F 32.0 °F 14% 29.89 in 10.0 mi SW 3.5 mph 17.3 mph N/A   Clear
8:48 PM 82.4 °F 32.0 °F 16% 29.90 in 10.0 mi WSW 3.5 mph - N/A   Clear
9:11 PM 80.6 °F 32.0 °F 17% 29.90 in 10.0 mi SW 3.5 mph - N/A   Clear
9:33 PM 78.8 °F 32.0 °F 18% 29.91 in 10.0 mi WSW 6.9 mph - N/A   Clear
9:51 PM 78.8 °F 32.0 °F 18% 29.91 in 10.0 mi SW 5.8 mph - N/A   Clear
10:12 PM 78.8 °F 32.0 °F 18% 29.91 in 10.0 mi SW 5.8 mph - N/A   Clear
10:29 PM 80.6 °F 32.0 °F 17% 29.90 in 10.0 mi SW 5.8 mph - N/A   Clear
10:53 PM 78.8 °F 32.0 °F 18% 29.91 in 10.0 mi WSW 6.9 mph - N/A   Clear
11:12 PM 77.0 °F 33.8 °F 21% 29.91 in 10.0 mi SW 5.8 mph - N/A   Clear
11:29 PM 78.8 °F 32.0 °F 18% 29.91 in 10.0 mi West 6.9 mph - N/A   Clear
11:52 PM 80.6 °F 32.0 °F 17% 29.91 in 10.0 mi WNW 6.9 mph - N/A   Clear